Regional Weather Roundup
Issued by NWS

Home | Current Version | Previous Version | Graphics & Text | Print | Product List | Glossary Off
Versions: 1 2 3 4 5 6 7 8 9 10 11 12 13 14 15 16 17 18 19 20 21 22 23 24 25 26 27 28 29 30 31 32 33 34 35 36 37 38 39 40 41 42 43 44 45 46 47 48 49 50

013
ASUS43 KTOP 230408
RWRKS

WEATHER ROUNDUP FOR KANSAS
NATIONAL WEATHER SERVICE GOODLAND KS
1100 PM CDT SAT JUL 22 2017

NOTE:  "FAIR" INDICATES FEW OR NO CLOUDS BELOW 12,000 FEET WITH NO
SIGNIFICANT WEATHER AND/OR OBSTRUCTIONS TO VISIBILITY.

KSZ001>006-013>018-027>032-041>047-230500-
NORTHWEST KANSAS

CITY           SKY/WX    TMP DP  RH WIND       PRES   REMARKS
GOODLAND       CLEAR     68  54  60 CALM      30.10R
HAYS           CLOUDY    73  68  84 NE12      29.93F
HILL CITY      PTCLDY    74  70  87 CALM      30.00R
RUSSELL        CLOUDY    72  66  81 NE12      29.92S
$$

KSZ061>065-074>080-084>089-230500-
SOUTHWEST KANSAS

CITY           SKY/WX    TMP DP  RH WIND       PRES   REMARKS
DODGE CITY     CLOUDY    76  65  68 NE8       30.00R
ELKHART          N/A     76  55  48 NE12        N/A
GARDEN CITY    CLOUDY    75  63  66 E5        30.02R
LIBERAL        PTCLDY    78  63  59 N10       30.01R
PRATT          PTCLDY    77  64  63 NE18G24   29.97R
$$

KSZ066>073-081>083-090>101-230500-
SOUTHEAST KANSAS

CITY           SKY/WX    TMP DP  RH WIND       PRES   REMARKS
CHANUTE        CLEAR     87  72  60 VRB5      29.89R
COFFEYVILLE    CLEAR     85  72  65 S9        29.85S
HUTCHINSON     PTCLDY    74  66  76 NE14G21   29.94S
MEDICINE LODGE   N/A     84  67  56 NE21G30   29.90R
NEWTON         TSTM      72  68  87 NE21G31   29.95F
PARSONS        CLEAR     85  72  65 S6        29.87R
WICHITA INTL   TSTM      76  71  85 N18G28    29.97R
WICHITA JABRA  TSTM      76  67  73 N23G39    29.95R
WICHITA MCCONL MOCLDY    81  66  61 NE22G38   29.95  THUNDER
WINFIELD       CLEAR     89  69  51 S13       29.87R
$$

KSZ007>012-019>026-033>040-048>060-102>105-230500-
NORTHEAST KANSAS

CITY           SKY/WX    TMP DP  RH WIND       PRES   REMARKS
CONCORDIA      LGT RAIN  71  70  96 S8        29.97R
EMPORIA        CLOUDY    71  67  87 NE16      29.98R
LAWRENCE       LGT RAIN  74  69  85 CALM      29.90F
MANHATTAN      RAIN      73  72  96 W6        29.96F
MARYSVILLE     CLOUDY    77  70  78 W3        29.97R
OLATHE IND     CLOUDY    70  64  81 VRB5      29.92F THUNDER
OLATHE EXE     TSTM      67  66  97 NE16G29   29.92F
SALINA         CLOUDY    75  69  81 E14       29.93F
TOPEKA BILLARD TSTM      74  73  97 W14G20    29.98R
TOPEKA FORBES  LGT RAIN  77  69  76 W15       29.98R
$$




USA.gov is the U.S. government's official web portal to all federal, state and local government web resources and services.